Kezdőlap
METAR-TAF:

METAR-TAF

Repülőterek :

Sitiawan, Malajzia

földrajzi szélesség: 04-13N, földrajzi hosszúság: 100-42E, magasság: 7 m

Jelenlegi meteorológiai megfigyelések

A jelentés 1 órával és 4 perccel ezelõtt készült, 01:00 UTC
Különbözõ irányokból fújó szél 2 kt
Hőmérséklet 27°C
Páratartalom 89%
Légköri nyomás 1010 hPa
Látótávolság 10 km, vagy több
Kevés felhő 2100 lábon

METAR: WMBA 210100Z VRB02KT 9999 FEW021 27/25 Q1010

Idő: 10:04 (02:04 UTC)


TAF: hiányzik

Meteorológiai megfigyelések és előrejelzések több, mint 4000 repülőtéren (METAR és TAF jelentéseket).

A térképen piros és sárga pontok jelzik az elérhető meteorológiai állomásokat.

Mozgassa az egeret a pont fölött, hogy megjelenjen az állomás neve.

Azután kattintson az időjárási megfigyelések és előrejelzések megtekintéséhez.

A térkép megváltoztatása: kattintson a fekete keresztel jelölt zöld gombra ráközelítéshez, a vonallal jelölt zöld gombra távolításhoz, vagy a zöld nyilakra a szomszédos térképek eléréséhez.


METAR-TAF: